Location: Seven Kings
(51.5667°N, 0.1000°E)
Time: 11:51:37
(UTC+00:00)

MOS 1 Rocket - Pass Details

Date: 29 October 2020
Orbit: 615 x 829 km, 97.4° (Epoch: 24 November)

Event Time Altitude Azimuth Distance (km) Brightness Sun altitude
Rises 18:01:00 0° 22° (NNE) 3,038 6.3 -13.5°
Reaches altitude 10° 18:03:31 10° 35° (NE) 2,153 5.5 -13.9°
Maximum altitude 18:07:30 27° 93° (E) 1,370 4.2 -14.5°
Drops below altitude 10° 18:11:41 10° 150° (SSE) 2,255 5.7 -15.1°
Sets 18:14:22 0° 163° (SSE) 3,212 6.6 -15.6°
